This is the latest recevied weather packets stored in our database for station/object SV9TNF-51. If no packets are shown the sender has not sent any weather packets the latest 10 day(s).
| Time | Temp. | Humidity | Pressure | Rain* | Wind** | Luminosity | Snow |
|---|---|---|---|---|---|---|---|
| 1787852198 | 29.44° C | 53% | 1012.2 hPa | 0 mm | 1.34 m/s, 150° | - | - |
| 1787851899 | 29.44° C | 49% | 1012.2 hPa | 0 mm | 1.79 m/s, 111° | - | - |
| 1787851599 | 29.44° C | 50% | 1012.2 hPa | 0 mm | 1.34 m/s, 130° | - | - |
| 1787851299 | 29.44° C | 54% | 1012.2 hPa | 0 mm | 1.79 m/s, 113° | - | - |
| 1787850998 | 29.44° C | 55% | 1012.2 hPa | 0 mm | 0 m/s | - | - |
| 1787850698 | 29.44° C | 55% | 1011.9 hPa | 0 mm | 0 m/s | - | - |
| 1787850398 | 29.44° C | 55% | 1011.9 hPa | 0 mm | 0.45 m/s, 124° | - | - |
| 1787850098 | 30° C | 54% | 1011.9 hPa | 0 mm | 0 m/s | - | - |
| 1787849798 | 30° C | 54% | 1011.9 hPa | 0 mm | 1.34 m/s, 126° | - | - |
| 1787849498 | 30.56° C | 54% | 1011.9 hPa | 0 mm | 0 m/s | - | - |
| 1787849203 | 30.56° C | 51% | 1011.9 hPa | 0 mm | 0.45 m/s, 131° | - | - |
| 1787848898 | 30.56° C | 50% | 1011.9 hPa | 0 mm | 0.89 m/s, 128° | - | - |
| 1787848597 | 30.56° C | 49% | 1011.9 hPa | 0 mm | 0 m/s | - | - |
| 1787848297 | 30.56° C | 46% | 1011.9 hPa | 0 mm | 0 m/s | - | - |
| 1787847997 | 31.11° C | 48% | 1011.9 hPa | 0 mm | 1.34 m/s, 98° | - | - |
| 1787847697 | 31.67° C | 48% | 1011.9 hPa | 0 mm | 1.79 m/s, 126° | - | - |
| 1787847397 | 31.67° C | 48% | 1011.9 hPa | 0 mm | 0 m/s | - | - |
| 1787847097 | 32.78° C | 42% | 1011.9 hPa | 0 mm | 1.34 m/s, 61° | - | - |
| 1787846797 | 32.78° C | 40% | 1011.9 hPa | 0 mm | 3.13 m/s, 132° | - | - |
| 1787846497 | 33.33° C | 41% | 1011.9 hPa | 0 mm | 1.34 m/s, 129° | - | - |
| 1787846197 | 33.33° C | 40% | 1011.9 hPa | 0 mm | 0 m/s | - | - |
| 1787845897 | 33.33° C | 42% | 1011.9 hPa | 0 mm | 2.68 m/s, 171° | - | - |
| 1787845597 | 33.33° C | 39% | 1011.9 hPa | 0 mm | 1.34 m/s, 125° | - | - |
| 1787845297 | 33.33° C | 39% | 1011.9 hPa | 0 mm | 1.79 m/s, 127° | - | - |
| 1787844996 | 33.33° C | 45% | 1011.9 hPa | 0 mm | 0 m/s | - | - |
* Rain latest hour (hover to see other rain measurements)
** Current wind speed in m/s (hover to see current wind gust speed)